Thompson, Ohio, United States (44086)
Lat: 41.69N, Lon: 81.05W
Wx Zone: OHZ013
Local Info
Past Weather Observations for Sunday, October 19, 2014

NOTE: This archive is for the closest National Weather Service station to Thompson. Information may differ from the station used for current weather conditions.

Click here for Long-term Archive

Time Weather Temperature Dewpoint Humidity Pressure Winds Precip Visibility
23:53
Clear
41°F / 5°C 36°F / 2°C 81% 30.04 in
(1017 mb)
S 5.8 mph
(S 9 kph)
- 10SM
22:53
Clear
39°F / 4°C 36°F / 2°C 87% 30.04 in
(1017 mb)
S 4.6 mph
(S 7 kph)
- 10SM
21:53
Clear
39°F / 4°C 36°F / 2°C 87% 30.06 in
(1018 mb)
S 3.5 mph
(S 6 kph)
- 10SM
20:53
Clear
39°F / 4°C 36°F / 2°C 87% 30.06 in
(1018 mb)
SSE 3.5 mph
(SSE 6 kph)
- 10SM
19:53
Clear
39°F / 4°C 36°F / 2°C 87% 30.06 in
(1018 mb)
Calm - 10SM
18:53
Clear
39°F / 4°C 36°F / 2°C 87% 30.09 in
(1019 mb)
Calm - 10SM
17:53
Clear
43°F / 6°C 37°F / 3°C 81% 30.09 in
(1019 mb)
Calm - 10SM
16:53
Clear
48°F / 9°C 36°F / 2°C 62% 30.09 in
(1019 mb)
NW 4.6 mph
(NW 7 kph)
- 10SM
15:53
Clear
50°F / 10°C 34°F / 1°C 54% 30.09 in
(1019 mb)
Variable 3.5 mph
(Variable 6 kph)
- 10SM
14:53
Clear
52°F / 11°C 34°F / 1°C 50% 30.12 in
(1020 mb)
WNW 10.4 mph
(WNW 17 kph)
- 10SM
13:53
Partly Cloudy
50°F / 10°C 34°F / 1°C 54% 30.15 in
(1021 mb)
W 10.4 mph
(W 17 kph)
- 10SM
12:53
Mostly Cloudy
48°F / 9°C 34°F / 1°C 58% 30.15 in
(1021 mb)
WNW 9.2 mph
(WNW 15 kph)
- 10SM
11:53
Mostly Cloudy
50°F / 10°C 34°F / 1°C 54% 30.15 in
(1021 mb)
NW 11.5 mph
(NW 19 kph)
- 10SM
10:53
Overcast
48°F / 9°C 36°F / 2°C 62% 30.15 in
(1021 mb)
WNW 5.8 mph
(WNW 9 kph)
- 10SM
09:53
Overcast
45°F / 7°C 34°F / 1°C 66% 30.18 in
(1022 mb)
NW 8.1 mph
(NW 13 kph)
- 10SM
08:53
Overcast
45°F / 7°C 34°F / 1°C 66% 30.15 in
(1021 mb)
NNW 8.1 mph
(NNW 13 kph)
- 10SM
07:53
Overcast
45°F / 7°C 34°F / 1°C 66% 30.15 in
(1021 mb)
NNW 5.8 mph
(NNW 9 kph)
- 10SM
06:53
Overcast
43°F / 6°C 34°F / 1°C 71% 30.12 in
(1020 mb)
NNW 4.6 mph
(NNW 7 kph)
- 10SM
05:53
Overcast
43°F / 6°C 34°F / 1°C 71% 30.12 in
(1020 mb)
NNW 5.8 mph
(NNW 9 kph)
- 10SM
04:53
Overcast
43°F / 6°C 34°F / 1°C 71% 30.09 in
(1019 mb)
NNW 5.8 mph
(NNW 9 kph)
- 10SM
03:53
Overcast
43°F / 6°C 34°F / 1°C 71% 30.09 in
(1019 mb)
NNW 5.8 mph
(NNW 9 kph)
0.00 in
(0.00 mm)
10SM
02:53
Overcast
Light Rain
43°F / 6°C 36°F / 2°C 76% 30.06 in
(1018 mb)
NW 4.6 mph
(NW 7 kph)
0.00 in
(0.00 mm)
10SM
01:53
Overcast
43°F / 6°C 36°F / 2°C 76% 30.06 in
(1018 mb)
NNW 5.8 mph
(NNW 9 kph)
0.00 in
(0.00 mm)
10SM
00:53
Overcast
43°F / 6°C 36°F / 2°C 76% 30.04 in
(1017 mb)
NNW 8.1 mph
(NNW 13 kph)
0.00 in
(0.00 mm)
10SM
Time Weather Temperature Dewpoint Humidity Pressure Winds Precip Visibility


Weather for websites

WeatherForYou.com, LLC is not responsible for any damages or problems caused by this service. Current weather conditions are obtained from the closest station including government and personal stations which may have varying degrees of accuracy. Weather forecasts are derived from the NOAA NDFD. Like all things, this site belongs to Jesus Christ... He just trusts me to maintain it. If you have any questions or comments email webmaster@weatherforyou.com

Copyright © 2014, WeatherForYou.com LLC. All rights reserved.